CAPE
0 0 0 0 0 0 1 1 0 1 0 0 2 0 0 0 0 0 0 0 0 0 0 0 0 0 0 0 0 0 0 1 0 0 4 89 35 190 101 123 145 76 28 15 3 5 7 0 0 35 3 0 0 367
0 0 0 1 1 1 1 1 1 0 0 0 2 0 0 0 0 0 0 0 0 2 0 0 0 0 0 0 0 0 0 0 0 0 0 9 0 2 2 45 0 45 68 160 36 47 0 0 0 0 0 2 0 144
0 0 0 0 2 0 0 0 1 1 0 0 2 0 0 0 0 0 0 0 1 0 0 0 0 0 0 0 0 0 0 0 0 0 0 0 0 0 0 0 0 0 12 89 15 0 0 0 0 0 0 0 76 132
0 0 0 1 1 0 1 1 0 1 0 0 1 0 0 0 0 0 0 0 0 0 0 0 0 0 0 0 0 0 0 0 0 0 0 0 0 0 0 0 0 0 0 0 8 8 0 0 0 0 0 0 38 193
0 0 0 1 1 1 0 0 1 2 0 0 1 0 0 0 0 0 0 0 0 0 1 1 0 0 0 0 0 0 0 0 0 0 0 0 0 0 0 0 0 0 0 0 0 7 0 1 0 0 0 0 6 50
0 0 0 0 1 1 2 2 2 2 0 0 0 0 0 0 0 0 0 0 0 0 0 0 0 0 0 0 0 0 0 0 0 0 0 0 0 0 0 0 0 0 0 0 0 0 0 1 0 0 0 0 0 20
0 0 0 0 1 1 2 2 2 1 0 0 0 0 0 0 0 0 0 0 0 0 0 2 0 0 0 0 0 0 0 0 0 0 0 0 0 0 0 0 0 0 0 0 0 0 0 0 2 0 0 0 0 0
0 0 0 0 1 1 1 3 2 0 0 1 0 0 0 0 0 0 0 0 0 0 25 10 9 0 0 0 2 0 4 0 0 0 0 0 0 0 0 0 0 0 0 0 0 0 0 0 0 0 0 0 0 0
0 0 0 0 1 1 2 2 1 1 1 0 0 0 0 0 0 2 0 0 0 1 15 8 4 2 0 1 1 0 0 12 0 1 0 0 0 0 0 0 0 0 0 0 0 0 0 0 0 0 0 0 0 0
0 0 0 0 1 1 1 0 1 0 0 0 0 0 12 14 0 0 0 0 0 0 0 7 8 0 0 0 7 15 4 10 10 3 0 0 0 0 0 0 0 0 0 0 0 0 0 0 0 0 0 0 0 0
0 0 0 0 1 0 1 1 0 0 0 0 0 52 7 0 9 46 9 0 0 0 1 0 0 0 0 3 17 2 18 4 3 2 0 0 0 0 0 0 0 0 0 0 0 0 0 0 0 0 0 0 0 0
0 0 0 1 1 1 0 0 0 0 0 0 9 0 13 88 72 63 26 0 0 0 0 0 0 7 0 2 16 1 9 0 8 0 0 0 0 0 0 0 0 0 0 0 0 0 0 0 0 0 0 0 0 0
0 0 0 1 1 0 0 0 0 0 0 0 0 59 87 60 21 6 1 0 0 0 0 0 0 0 0 2 15 3 3 3 0 0 0 0 0 0 0 0 0 0 0 0 0 0 0 0 0 0 0 0 0 1
0 0 0 0 0 0 0 0 0 0 0 19 41 7 6 20 4 0 0 1 2 1 0 0 0 0 4 1 8 3 2 0 0 0 0 0 0 0 0 0 0 0 0 0 0 0 0 0 0 0 0 0 0 1
0 0 0 0 0 0 0 0 0 0 0 2 1 0 0 0 2 34 33 70 131 79 22 0 1 3 4 6 2 1 0 0 0 0 0 0 1 0 0 0 0 0 0 0 0 0 0 1 11 32 29 18 11 10
0 0 0 0 0 0 0 0 0 0 0 0 0 2 0 12 0 35 123 98 170 51 3 3 16 14 9 12 0 0 0 0 0 0 0 0 0 0 3 0 0 0 0 0 0 1 28 47 30 17 0 0 0 0
0 1 0 0 0 0 0 1 0 0 1 0 0 0 0 5 47 114 133 196 213 83 22 38 13 17 23 7 6 0 0 7 16 16 19 6 2 8 18 4 0 0 2 3 7 1 0 0 0 0 0 0 0 0
0 0 0 0 1 0 1 1 4 0 1 0 0 0 0 0 0 0 0 144 127 178 196 54 96 49 20 6 36 37 21 17 16 17 23 1 0 1 1 1 5 6 7 1 1 0 0 0 0 0 0 0 0 0
0 0 0 0 0 5 25 6 13 13 0 0 2 0 0 0 0 0 4 61 151 283 217 119 57 52 41 87 62 45 85 38 43 46 14 0 0 0 0 0 2 0 0 0 0 0 0 0 0 0 0 0 3 0
0 0 0 0 0 3 2 22 13 0 0 18 1 1 6 9 8 0 0 9 46 94 74 22 48 158 162 143 184 142 106 206 53 30 17 0 0 0 0 0 0 0 0 0 0 0 0 0 0 0 2 0 15 11
0 0 0 0 0 0 0 19 23 37 69 91 121 125 124 87 97 75 66 129 134 91 63 70 106 117 167 352 322 218 248 170 71 58 77 4 0 0 0 0 0 0 0 0 0 0 0 6 5 2 0 1 5 5
2 0 0 0 0 4 0 0 1 10 35 56 45 80 95 142 178 244 292 175 121 106 144 112 110 185 216 434 409 432 286 342 248 72 0 0 0 0 0 0 0 0 1 0 0 3 5 7 2 4 7 18 0 26
1 0 3 0 7 8 0 1 17 13 6 2 37 13 5 15 60 202 90 127 134 160 187 170 276 338 227 370 501 416 277 197 139 30 0 0 0 0 0 0 2 10 0 0 1 6 3 0 0 14 24 7 27 34
0 5 12 14 10 0 3 28 28 25 7 1 0 1 25 115 104 107 24 114 202 483 326 310 307 367 502 377 369 376 156 4 4 0 0 0 0 0 0 9 7 0 0 0 0 0 0 1 1 7 29 35 22 28
1 0 1 0 14 11 8 14 19 11 6 13 24 23 64 138 26 22 13 149 328 277 335 497 552 504 325 335 287 0 0 0 0 0 0 0 0 0 2 1 0 0 0 0 0 0 0 6 11 22 23 22 17 25
0 1 0 6 13 10 17 23 22 22 25 27 20 19 52 9 4 11 49 174 259 337 430 464 356 257 206 216 196 3 0 0 0 0 0 0 0 0 3 17 0 0 0 0 0 0 0 4 20 21 22 12 0 4
0 13 6 2 15 26 20 20 30 10 0 16 25 46 41 50 61 102 127 190 228 119 96 123 132 141 112 97 1 0 0 0 0 0 0 0 0 10 36 19 3 0 0 0 0 0 7 14 19 22 19 20 13 15
4 21 8 25 12 14 6 5 2 5 14 2 9 9 17 0 0 4 46 13 1 0 2 7 0 0 23 3 0 0 0 0 0 0 0 0 23 48 39 24 17 0 0 0 2 8 18 22 26 31 31 19 13 10
17 17 20 20 24 23 18 16 12 15 23 3 3 3 9 11 19 14 18 0 0 0 15 8 1 3 0 0 0 0 0 0 0 0 0 0 0 3 1 0 0 0 0 0 0 2 23 25 27 33 20 11 5 5
10 7 15 9 7 3 2 4 17 44 36 58 34 15 21 18 16 0 30 0 0 0 0 0 0 0 0 0 0 0 0 0 0 0 0 0 0 0 0 0 0 0 0 0 0 0 0 0 0 1 0 0 0 4
2 3 1 0 0 0 0 0 0 1 1 0 0 1 51 66 26 10 42 0 0 0 0 0 0 0 0 0 0 0 3 0 0 0 0 0 0 0 0 0 0 0 0 0 0 0 0 0 4 4 0 0 3 1
6 3 1 0 0 0 0 0 0 0 0 0 0 70 81 78 123 0 0 0 0 0 0 0 0 0 0 1 1 0 0 1 0 0 0 0 0 0 0 0 0 0 0 0 0 0 0 0 0 0 0 1 7 7
10 5 1 1 0 0 0 0 1 2 13 16 92 199 176 148 95 2 0 0 0 0 0 0 0 0 0 0 0 0 0 0 0 0 0 0 0 0 0 0 0 0 0 0 0 0 0 0 0 0 0 5 11 12
CIN
-0 -0 -0 -2 -0 -0 -0 -0 -3 -3 -0 -0 -0 -0 -0 -0 -0 -0 -0 -0 -0 -0 -0 -0 -0 -0 -0 -0 -0 -0 -0 -31 -0 -6 -51 -32 -48 -8 -13 -18 -8 -6 -7 -3 -4 -4 -3 -0 -0 -51 -9 -0 -0 -32
-0 -0 -0 -0 -0 -0 -0 -0 -0 -0 -0 -0 -0 -0 -0 -0 -0 -0 -0 -0 -0 -83 -0 -0 -0 -0 -0 -0 -0 -0 -3 -0 -0 -2 -5 -127 -0 -7 -51 -33 -128 -10 -11 -3 -22 -17 -0 -0 -0 -0 -0 -120 -0 -102
-0 -0 -0 -0 -0 -0 -0 -0 -0 -0 -0 -0 -0 -0 -0 -0 -0 -0 -0 -0 -11 -0 -0 -0 -0 -0 -0 -0 -0 -0 -0 -0 -0 -0 -0 -0 -0 -0 -0 -0 -0 -0 -72 -5 -27 -2 -0 -0 -0 -0 -0 -0 -104 -100
-0 -0 -0 -0 -0 -0 -0 -0 -0 -0 -0 -0 -0 -0 -0 -0 -0 -0 -0 -0 -0 -0 -0 -0 -0 -0 -0 -0 -0 -0 -0 -0 -0 -0 -0 -0 -0 -0 -0 -1 -0 -0 -0 -0 -5 -6 -0 -0 -0 -0 -0 -0 -99 -73
-0 -0 -0 -0 -0 -0 -0 -0 -0 -0 -0 -0 -1 -0 -0 -0 -0 -0 -0 -0 -0 -0 -1 -1 -0 -0 -0 -0 -0 -0 -0 -0 -0 -0 -0 -0 -0 -0 -0 -0 -0 -0 -0 -0 -0 -18 -0 -2 -0 -0 -0 -0 -79 -72
-0 -0 -0 -0 -0 -0 -0 -0 -0 -0 -0 -0 -1 -0 -0 -0 -0 -0 -0 -0 -0 -0 -0 -0 -0 -0 -0 -0 -0 -0 -0 -0 -0 -0 -0 -0 -0 -0 -0 -0 -0 -0 -0 -0 -0 -0 -0 -1 -0 -0 -0 -0 -0 -43
-0 -0 -0 -0 -0 -0 -0 -0 -0 -0 -0 -0 -0 -0 -0 -0 -0 -0 -0 -0 -0 -0 -1 -1 -0 -0 -0 -0 -0 -0 -0 -0 -0 -0 -0 -0 -0 -0 -0 -0 -0 -0 -0 -0 -0 -0 -0 -0 -1 -0 -0 -0 -0 -0
-0 -0 -0 -0 -0 -0 -0 -0 -0 -0 -0 -1 -0 -0 -0 -0 -0 -0 -0 -0 -0 -0 -5 -2 -4 -0 -0 -0 -1 -0 -1 -0 -0 -0 -0 -0 -0 -0 -0 -0 -0 -0 -0 -0 -0 -0 -0 -0 -0 -0 -0 -0 -0 -0
-0 -0 -0 -0 -0 -0 -0 -0 -0 -0 -1 -0 -0 -0 -0 -0 -0 -1 -0 -0 -0 -3 -1 -0 -3 -1 -0 -2 -0 -0 -0 -0 -0 -1 -0 -0 -0 -0 -0 -0 -0 -0 -0 -0 -0 -0 -0 -0 -0 -0 -0 -0 -0 -0
-0 -0 -0 -0 -0 -0 -0 -0 -0 -0 -0 -0 -0 -0 -0 -1 -0 -0 -0 -0 -0 -0 -0 -1 -1 -0 -0 -0 -1 -1 -3 -2 -1 -1 -0 -0 -0 -0 -0 -0 -0 -0 -0 -0 -0 -0 -0 -0 -0 -0 -0 -0 -0 -0
-0 -0 -0 -0 -0 -0 -0 -0 -0 -0 -0 -0 -0 -1 -15 -0 -3 -1 -0 -0 -0 -0 -1 -0 -0 -1 -0 -2 -2 -1 -1 -1 -0 -2 -0 -0 -0 -0 -0 -0 -0 -0 -0 -0 -0 -0 -0 -0 -0 -0 -0 -0 -0 -0
-0 -0 -0 -0 -0 -0 -0 -0 -0 -0 -0 -0 -10 -0 -22 -6 -1 -0 -1 -0 -0 -0 -0 -0 -0 -2 -0 -8 -1 -4 -1 -0 -1 -0 -0 -0 -0 -0 -0 -0 -0 -0 -0 -0 -0 -0 -0 -0 -0 -0 -0 -0 -0 -0
-0 -0 -0 -0 -0 -0 -0 -0 -0 -0 -0 -0 -0 -11 -3 -2 -1 -5 -0 -0 -0 -0 -0 -0 -0 -0 -0 -1 -2 -3 -1 -1 -0 -0 -0 -0 -0 -0 -0 -0 -0 -0 -0 -0 -0 -0 -0 -0 -0 -0 -0 -0 -0 -1
-0 -0 -0 -0 -0 -0 -0 -0 -0 -0 -0 -25 -10 -11 -12 -6 -11 -0 -0 -0 -1 -3 -0 -0 -0 -0 -1 -1 -1 -1 -1 -0 -1 -0 -0 -0 -0 -0 -0 -0 -0 -0 -0 -0 -0 -0 -0 -0 -0 -0 -0 -0 -0 -0
-0 -0 -0 -0 -0 -0 -0 -0 -0 -0 -0 -6 -6 -0 -0 -0 -9 -8 -8 -22 -20 -26 -33 -1 -1 -1 -1 -3 -2 -3 -0 -0 -0 -0 -0 -0 -12 -0 -0 -0 -0 -0 -0 -0 -0 -0 -0 -0 -1 -1 -4 -8 -11 -12
-0 -0 -0 -0 -0 -0 -0 -0 -0 -0 -0 -0 -0 -0 -0 -2 -0 -3 -3 -7 -14 -44 -35 -2 -2 -2 -2 -2 -0 -0 -0 -0 -0 -0 -0 -0 -0 -0 -39 -0 -0 -0 -0 -0 -0 -0 -1 -1 -6 -5 -2 -0 -0 -0
-0 -0 -0 -0 -0 -0 -0 -34 -0 -0 -6 -0 -0 -0 -0 -10 -0 -1 -5 -5 -17 -31 -9 -6 -3 -2 -2 -2 -1 -0 -11 -3 -2 -1 -2 -8 -35 -37 -84 -111 -0 -19 -58 -24 -12 -0 -0 -0 -0 -0 -0 -0 -0 -0
-0 -0 -0 -0 -0 -0 -4 -6 -3 -2 -0 -0 -0 -0 -0 -0 -0 -0 -1 -35 -25 -5 -3 -10 -8 -6 -1 -1 -7 -3 -4 -2 -4 -17 -21 -12 -26 -107 -116 -122 -127 -109 -78 -58 -70 -0 -0 -0 -0 -0 -0 -0 -0 -0
-0 -0 -0 -0 -0 -1 -0 -5 -3 -0 -0 -0 -15 -0 -0 -0 -0 -0 -24 -50 -26 -4 -7 -12 -4 -6 -7 -2 -2 -7 -4 -6 -3 -10 -37 -0 -0 -0 -0 -0 -144 -0 -0 -0 -0 -0 -0 -0 -0 -0 -0 -0 -1 -0
-0 -0 -0 -0 -0 -0 -1 -0 -4 -0 -0 -2 -41 -35 -70 -56 -32 -7 -0 -79 -57 -23 -19 -10 -9 -1 -3 -2 -3 -3 -2 -13 -20 -10 -14 -0 -0 -0 -0 -0 -0 -0 -0 -0 -0 -0 -0 -0 -0 -0 -1 -0 -1 -1
-0 -0 -0 -0 -0 -0 -0 -0 -0 -1 -1 -1 -1 -1 -1 -14 -17 -24 -37 -50 -24 -16 -15 -19 -7 -4 -3 -10 -20 -27 -28 -46 -23 -28 -16 -12 -0 -0 -0 -0 -0 -0 -0 -0 -0 -0 -0 -2 -1 -2 -0 -1 -1 -1
-0 -0 -0 -0 -0 -18 -0 -0 -1 -2 -3 -2 -4 -2 -1 -1 -1 -0 -1 -6 -6 -5 -13 -6 -2 -3 -4 -26 -31 -61 -53 -70 -77 -79 -0 -0 -0 -0 -0 -0 -0 -0 -2 -0 -0 -2 -1 -1 -1 -1 -1 -1 -0 -1
-0 -0 -8 -12 -3 -2 -0 -0 -0 -1 -1 -1 -3 -12 -23 -20 -15 -38 -15 -5 -8 -14 -12 -11 -22 -55 -47 -37 -51 -64 -96 -90 -48 -68 -0 -0 -0 -0 -0 -0 -36 -3 -0 -0 -3 -2 -2 -0 -0 -1 -2 -2 -1 -1
-0 -1 -1 -0 -0 -0 -1 -0 -1 -0 -0 -0 -0 -2 -2 -1 -72 -18 -14 -2 -5 -23 -45 -58 -53 -26 -19 -51 -33 -28 -79 -146 -32 -0 -0 -0 -0 -0 -0 -4 -2 -0 -0 -0 -0 -0 -1 -1 -1 -2 -2 -1 -2 -1
-0 -0 -6 -0 -1 -0 -1 -1 -0 -0 -1 -1 -1 -1 -5 -22 -20 -12 -12 -3 -20 -33 -23 -18 -12 -11 -7 -13 -26 -0 -0 -0 -0 -0 -0 -0 -0 -0 -3 -17 -1 -0 -0 -0 -0 -0 -0 -3 -1 -2 -1 -1 -1 -2
-0 -0 -0 -1 -0 -1 -1 -0 -1 -1 -3 -4 -1 -7 -11 -8 -1 -2 -15 -21 -28 -32 -16 -9 -7 -13 -14 -10 -1 -9 -0 -0 -0 -0 -0 -0 -0 -0 -4 -1 -2 -0 -0 -0 -0 -0 -0 -1 -1 -2 -2 -4 -0 -2
-0 -0 -1 -1 -1 -0 -0 -1 -1 -2 -2 -0 -2 -3 -7 -1 -0 -2 -19 -31 -34 -71 -98 -68 -33 -8 -1 -2 -3 -0 -0 -0 -0 -0 -0 -0 -0 -3 -2 -2 -2 -0 -0 -0 -0 -0 -2 -2 -3 -2 -1 -2 -2 -2
-6 -1 -0 -0 -0 -1 -4 -1 -0 -0 -1 -1 -5 -4 -0 -0 -0 -32 -19 -34 -10 -0 -151 -114 -0 -0 -19 -6 -0 -0 -0 -0 -0 -0 -0 -0 -4 -2 -2 -2 -2 -0 -0 -0 -3 -3 -2 -4 -3 -3 -3 -2 -3 -1
-0 -4 -1 -0 -0 -0 -1 -0 -1 -1 -7 -8 -4 -4 -4 -18 -19 -26 -51 -0 -0 -0 -78 -76 -101 -81 -0 -0 -0 -0 -0 -0 -0 -0 -0 -0 -0 -2 -0 -0 -0 -0 -0 -0 -0 -2 -3 -4 -2 -3 -3 -1 -2 -1
-0 -1 -0 -0 -1 -1 -2 -1 -1 -4 -10 -1 -3 -11 -24 -37 -80 -11 -73 -0 -0 -0 -0 -0 -0 -0 -0 -0 -0 -0 -0 -0 -0 -0 -1 -0 -0 -0 -0 -0 -0 -0 -0 -1 -0 -0 -0 -0 -6 -5 -1 -0 -0 -3
-1 -1 -0 -0 -0 -0 -0 -0 -0 -0 -0 -0 -0 -6 -1 -44 -80 -117 -83 -0 -0 -0 -0 -0 -0 -0 -0 -0 -0 -0 -1 -0 -0 -0 -0 -0 -0 -0 -0 -0 -0 -0 -0 -0 -0 -0 -0 -0 -2 -2 -0 -0 -2 -0
-0 -0 -1 -0 -0 -0 -0 -0 -0 -0 -0 -0 -0 -6 -14 -14 -1 -0 -0 -0 -0 -0 -0 -0 -0 -0 -0 -0 -3 -0 -0 -1 -0 -0 -0 -0 -0 -0 -0 -0 -0 -0 -0 -0 -0 -0 -0 -0 -0 -0 -0 -1 -1 -3
-0 -1 -1 -0 -0 -0 -0 -0 -1 -1 -1 -0 -0 -0 -3 -1 -3 -51 -0 -0 -0 -0 -0 -0 -0 -0 -0 -0 -0 -0 -0 -0 -0 -0 -0 -0 -0 -0 -0 -0 -0 -0 -0 -0 -0 -0 -0 -0 -0 -0 -0 -2 -1 -1
Wind_Speed
34 35 35 35 34 33 32 29 26 23 27 26 24 23 22 21 19 18 13 14 9 11 10 11 12 12 13 12 10 14 12 13 13 5 14 13 16 14 17 16 18 20 22 24 21 23 23 20 18 22 22 21 21 19
34 35 36 36 35 33 32 30 27 25 27 26 25 23 22 21 19 18 12 12 15 18 10 11 13 15 15 15 12 12 12 12 13 10 14 13 13 13 15 16 16 19 20 21 22 20 14 16 15 17 19 22 22 21
33 36 37 36 35 34 32 29 27 25 26 26 24 23 22 22 19 18 14 13 8 13 9 8 10 14 16 16 8 12 13 12 13 14 14 9 9 14 13 15 15 15 16 17 16 15 14 16 16 18 19 20 20 18
33 34 36 35 34 34 32 29 26 23 26 25 24 22 22 22 20 19 13 14 8 18 18 10 9 12 16 16 15 11 14 14 13 15 14 14 12 10 12 16 15 15 10 15 18 16 16 15 16 18 19 19 18 17
30 33 36 35 33 33 31 30 27 23 26 25 23 22 21 21 20 18 12 13 17 20 18 10 8 12 13 14 15 16 16 16 17 16 16 16 15 16 15 15 16 7 11 11 18 14 18 15 17 19 19 19 18 17
30 32 34 34 33 33 30 26 24 20 25 25 23 23 21 21 18 12 9 7 17 19 19 13 13 8 10 12 12 13 16 16 16 16 15 15 15 16 14 14 16 13 7 13 14 14 14 14 16 18 18 18 18 17
31 33 34 34 33 33 30 24 16 20 25 23 22 22 22 20 16 13 14 12 18 18 19 17 14 8 9 12 19 17 16 15 14 15 14 14 14 14 13 12 12 13 12 10 8 9 8 10 10 16 19 19 17 17
31 32 33 33 31 30 25 20 15 20 24 20 20 21 22 20 20 16 12 15 20 19 19 19 15 11 19 19 15 19 14 13 14 13 13 13 13 12 12 12 12 12 12 11 11 10 9 10 10 12 14 17 18 19
29 31 33 31 27 25 20 15 11 19 20 17 19 20 15 15 14 14 10 12 18 20 17 19 16 13 10 18 15 12 17 13 14 13 13 13 11 11 11 12 12 13 11 11 10 10 9 9 7 8 10 11 9 15
29 31 32 27 22 19 16 10 18 18 15 16 16 15 16 12 10 9 13 13 15 22 21 20 20 14 14 5 10 18 17 14 13 13 13 11 9 11 10 11 11 11 11 10 10 9 8 8 7 7 8 11 14 14
29 32 29 23 19 15 13 11 14 14 13 15 19 17 14 10 11 15 16 14 13 20 22 21 20 13 16 11 14 17 14 11 11 12 11 11 10 10 11 12 13 13 12 11 9 10 9 9 10 9 9 10 13 17
28 29 26 21 15 13 9 11 15 13 16 16 14 12 11 14 16 18 18 16 18 19 17 15 14 15 12 14 14 14 15 11 10 11 10 10 10 12 12 13 13 13 12 11 10 10 10 10 11 11 12 13 14 15
26 26 24 17 9 8 8 12 14 16 15 16 16 16 14 15 19 22 17 16 18 16 16 11 11 12 12 15 14 13 12 10 13 10 10 9 12 11 11 11 11 11 11 11 11 11 10 9 10 11 12 13 13 14
24 23 19 15 9 10 10 15 17 18 18 20 20 21 20 20 23 21 19 16 17 16 12 11 8 12 12 12 13 15 14 12 11 10 10 10 9 9 8 8 8 8 9 9 9 9 9 8 9 10 12 13 14 14
22 21 18 16 7 18 20 18 18 21 22 21 19 22 24 24 21 20 20 17 15 12 8 10 11 13 11 14 15 14 13 15 12 11 13 11 8 6 6 5 6 6 6 6 7 7 7 7 7 9 13 15 16 17
21 19 14 18 17 18 27 21 20 21 20 20 22 22 22 22 23 16 16 12 7 7 9 14 15 17 15 16 15 16 16 17 15 14 15 10 10 7 4 3 5 5 5 5 5 6 7 8 8 8 12 15 17 19
18 16 16 15 13 13 14 18 19 18 19 21 24 26 26 22 20 17 16 9 12 9 9 16 19 17 14 18 17 15 17 16 16 16 16 12 9 7 6 3 4 4 5 5 6 7 8 10 11 11 12 14 15 16
16 14 13 13 13 11 13 17 17 21 26 19 25 24 22 23 22 18 14 11 12 16 20 21 19 18 19 19 18 16 18 18 20 21 19 13 11 7 5 3 4 5 5 6 7 8 9 9 10 11 11 12 14 15
13 16 16 16 16 16 16 16 17 20 23 20 25 26 24 23 22 23 13 13 19 19 20 19 20 22 25 24 25 23 21 20 21 24 20 15 9 6 5 3 3 5 6 7 8 9 9 9 10 10 11 11 13 16
21 23 21 18 17 17 17 16 16 20 19 17 20 21 22 20 17 16 14 13 13 16 20 22 22 21 21 24 23 23 21 19 23 23 19 15 8 5 4 3 4 4 7 8 9 8 8 9 9 10 11 12 12 14
18 19 16 15 18 19 19 18 19 19 19 20 19 17 17 14 18 15 13 10 13 21 24 24 27 27 27 25 23 22 22 21 23 24 23 13 8 6 3 4 5 4 7 7 6 7 7 8 9 9 10 10 12 12
16 12 14 16 19 18 21 21 21 19 20 20 21 18 18 14 13 14 12 12 20 19 21 27 26 27 24 28 23 18 23 22 21 18 16 11 6 4 3 2 4 7 6 7 7 8 8 9 10 10 9 10 11 11
15 14 16 17 20 21 22 20 23 22 22 18 17 15 14 13 16 11 16 17 20 20 23 24 26 25 29 25 22 21 20 18 16 14 13 10 7 6 7 6 4 4 7 7 8 9 10 11 10 10 11 11 12 12
13 15 18 17 21 20 20 21 21 20 19 16 18 19 17 15 13 14 16 15 14 17 19 21 20 21 21 20 21 17 18 13 11 10 9 9 9 10 8 8 8 8 7 8 9 10 10 10 12 11 10 10 11 13
16 18 17 20 21 21 21 19 21 22 21 14 16 14 13 11 17 20 19 14 15 20 19 16 18 20 22 19 19 18 13 9 9 10 9 9 10 8 8 9 9 9 9 9 9 10 10 11 11 10 11 12 12 13
20 19 20 21 21 20 19 18 19 20 16 19 20 19 10 14 17 18 14 13 14 14 14 15 16 17 17 17 15 12 10 9 9 10 9 10 9 9 8 9 10 10 11 10 11 10 10 10 10 10 11 12 12 11
21 21 23 22 20 20 20 19 18 20 20 21 20 19 18 19 19 17 15 16 16 15 15 16 17 18 18 15 13 13 11 10 9 9 10 11 9 9 11 11 10 10 11 10 10 10 10 11 11 10 11 12 12 12
21 20 24 21 24 22 20 17 16 15 15 16 15 15 17 12 20 19 17 15 15 15 16 17 17 16 15 13 13 13 12 12 12 12 11 11 11 11 12 11 10 11 11 10 9 9 9 10 10 11 11 11 12 12
23 23 23 23 22 22 22 23 20 17 13 13 16 13 16 17 15 17 16 14 15 16 15 15 15 14 14 14 14 13 13 13 12 10 10 10 10 11 11 10 10 10 9 8 7 7 8 8 9 10 11 11 12 13
25 25 24 24 26 25 25 24 22 20 16 17 17 16 15 15 16 16 17 16 15 14 15 15 14 14 13 12 12 12 11 11 11 10 10 10 10 11 10 10 9 8 7 7 7 8 8 8 8 9 10 11 12 14
21 23 25 27 27 26 26 26 27 26 25 24 22 22 20 16 16 16 14 15 13 13 13 14 15 15 13 11 11 10 11 11 11 12 11 11 11 11 11 11 11 10 10 10 11 11 11 11 11 10 10 11 11 12
23 25 25 24 23 23 25 24 20 20 21 18 22 19 18 18 17 16 14 13 12 11 12 14 14 15 13 12 12 13 14 12 11 11 11 11 12 11 11 11 12 11 11 11 12 12 12 12 11 11 10 10 10 10
22 22 22 22 21 20 15 12 11 10 10 7 12 15 16 16 16 15 14 14 14 14 13 15 15 13 10 12 13 14 14 14 13 11 11 11 11 11 11 11 11 11 11 11 12 12 12 12 11 11 10 10 10 9
Wind_Direction
318 316 317 317 318 318 318 323 329 332 305 295 306 308 306 301 295 292 319 319 17 342 336 0 25 54 62 74 95 47 107 96 114 54 314 329 301 306 292 293 284 276 271 266 272 270 268 291 287 272 280 285 289 289
321 316 314 314 314 313 311 315 322 318 296 286 298 298 296 288 290 280 325 339 293 267 328 334 2 24 38 37 95 83 112 100 16 89 324 343 340 333 302 297 296 280 278 276 273 282 304 305 301 300 297 287 288 288
325 317 313 313 308 307 309 312 316 314 295 281 293 293 290 283 288 283 306 324 8 281 332 43 53 26 15 15 159 143 98 52 98 220 129 31 17 320 322 306 301 304 296 287 290 294 302 298 302 307 305 301 302 296
325 323 315 313 311 306 307 314 314 315 287 281 288 288 288 284 284 282 303 302 339 262 263 334 360 18 333 351 40 74 70 74 80 141 147 153 125 14 348 305 306 310 334 304 292 299 301 301 303 306 308 309 310 304
330 324 316 315 312 308 310 310 305 305 280 276 280 281 284 283 283 282 310 305 275 252 266 314 355 348 13 21 19 56 127 148 150 152 152 146 158 154 153 168 168 48 338 328 305 318 303 310 308 306 304 306 310 306
329 325 321 316 311 307 313 316 310 303 279 266 272 274 279 278 286 300 321 328 268 257 259 293 306 28 10 16 5 224 170 149 144 147 130 125 139 159 145 148 170 135 27 329 327 328 327 324 312 311 304 307 306 306
328 324 320 316 313 308 311 313 318 296 262 265 271 270 272 273 278 288 296 308 256 256 256 273 291 345 68 168 197 186 172 134 138 104 118 117 115 139 143 140 132 131 128 108 65 18 12 351 351 321 310 304 303 303
326 324 319 318 320 314 316 314 315 284 253 267 272 270 267 267 262 275 294 280 247 251 255 263 279 305 147 157 124 196 121 100 78 85 94 120 105 133 144 142 112 117 114 114 120 115 49 21 5 355 336 316 303 293
329 324 319 322 323 320 321 321 322 266 258 270 271 269 277 275 278 282 294 288 254 250 262 263 268 286 281 242 278 126 183 133 116 120 121 115 93 113 114 117 115 112 104 87 109 112 113 111 85 35 4 350 340 310
330 325 319 326 328 330 328 338 273 257 271 270 266 273 273 280 290 285 283 280 263 252 257 260 254 279 266 334 316 254 226 138 134 101 90 106 127 162 114 93 88 90 89 74 71 85 88 88 91 72 52 3 336 328
329 320 321 328 325 326 334 310 268 268 273 261 255 264 282 276 279 270 274 274 267 258 254 255 252 271 261 288 285 275 313 71 118 73 93 92 94 87 96 113 103 102 98 88 69 40 46 38 35 39 40 26 351 330
327 322 321 320 321 322 337 304 277 270 260 258 270 280 275 272 271 264 264 273 264 260 263 252 252 263 275 280 293 306 313 30 96 49 78 90 85 73 88 112 112 107 100 82 68 50 29 25 18 15 11 9 4 345
325 321 320 321 4 353 348 302 277 258 253 254 261 264 273 271 263 255 263 269 261 267 257 254 247 262 276 277 298 312 336 18 21 62 59 79 49 78 85 92 102 99 97 86 77 65 53 42 20 11 6 5 1 357
320 323 323 343 4 316 303 263 247 239 242 242 246 251 258 260 254 260 265 276 268 267 256 238 236 264 279 276 298 304 321 348 18 56 59 55 87 89 86 93 99 107 107 92 80 74 57 45 28 16 3 358 354 352
309 309 321 308 14 259 247 255 245 230 227 239 253 248 251 253 265 273 271 276 272 269 243 231 247 270 269 284 290 303 319 319 348 8 6 23 46 60 88 96 113 105 109 104 88 75 68 67 40 14 353 349 343 341
281 301 334 270 283 253 215 234 232 234 244 249 252 259 267 267 264 284 274 272 279 251 232 238 256 264 273 285 291 291 303 311 338 348 357 26 35 46 59 91 128 111 110 96 81 63 36 23 31 29 357 347 342 338
289 275 278 301 333 275 272 250 247 251 257 261 260 252 252 269 272 273 267 266 250 240 237 254 256 264 285 283 286 300 300 322 339 345 353 358 359 13 19 56 115 105 96 85 56 40 33 22 13 11 1 1 357 352
289 302 306 293 284 285 256 249 258 252 248 279 255 255 262 260 257 266 270 264 257 251 252 257 269 270 278 286 290 298 313 317 326 333 338 347 345 355 19 81 103 97 80 67 55 43 33 34 26 18 24 14 7 3
296 256 246 263 255 256 256 266 266 262 257 272 254 253 256 255 253 248 275 265 255 259 265 271 276 274 275 282 288 294 305 313 322 328 341 349 352 1 13 57 78 72 68 66 52 40 32 40 30 30 26 26 13 4
254 235 239 257 265 257 264 275 279 264 265 275 263 258 259 265 274 274 273 274 277 279 274 272 275 284 293 293 296 297 304 316 319 327 339 351 23 19 41 80 100 78 45 36 31 46 58 50 41 38 33 22 18 14
257 259 273 282 263 260 261 263 258 259 264 262 270 276 278 287 276 281 281 284 280 275 272 273 273 280 284 292 299 302 306 311 315 319 325 335 354 1 26 101 106 58 27 29 55 47 62 44 46 45 40 33 24 25
265 281 284 268 256 263 256 256 255 266 262 261 264 276 278 296 300 289 291 287 281 286 284 278 282 284 289 281 302 313 306 313 320 329 336 347 351 358 55 63 328 356 15 68 61 36 49 49 46 47 46 37 33 34
267 277 272 270 258 259 251 262 247 253 255 276 287 296 305 306 293 312 300 292 287 292 285 284 282 284 274 287 301 311 318 326 331 340 343 5 32 69 95 86 21 62 39 55 48 51 52 50 55 55 48 43 41 38
276 268 261 270 252 254 252 244 245 260 271 294 289 282 293 301 316 313 304 306 313 303 290 288 292 285 287 295 299 323 326 350 1 12 27 55 84 104 85 85 92 84 60 52 55 54 59 65 56 63 54 51 49 44
267 262 267 253 243 241 242 257 250 242 249 298 292 308 318 324 298 283 286 306 314 289 287 293 288 277 277 300 309 318 346 27 33 27 59 84 96 78 73 74 94 86 69 71 67 71 68 63 68 60 53 49 48 51
248 247 238 229 231 235 244 253 248 248 282 275 269 268 269 304 283 268 276 303 296 272 275 283 288 296 304 312 327 357 21 42 46 44 64 86 88 76 80 94 98 90 92 78 74 73 69 67 64 53 53 47 47 70
235 228 225 228 236 240 240 245 256 262 260 225 204 212 221 220 225 245 272 269 257 269 299 296 295 294 301 324 353 4 35 44 61 59 80 93 92 103 105 108 107 103 107 93 83 76 70 68 64 63 55 61 65 90
232 234 214 231 222 230 242 257 260 251 253 241 255 259 236 183 225 258 282 286 280 285 295 314 311 314 334 2 19 33 42 47 59 58 49 52 67 87 104 98 61 96 107 109 94 86 83 79 68 60 66 69 80 88
226 219 225 230 231 235 232 226 237 249 269 254 226 268 238 33 205 205 225 260 276 276 326 348 359 11 21 31 30 45 58 68 66 64 66 64 70 86 92 81 83 90 92 98 99 75 103 84 75 74 63 79 91 100
225 221 233 236 224 220 210 221 241 259 279 269 276 286 314 298 253 258 262 274 302 321 337 357 15 23 30 32 40 52 59 60 65 75 70 67 71 86 86 83 87 91 90 87 89 92 71 78 63 73 74 83 99 116
246 229 223 220 220 210 213 217 226 241 252 262 271 273 285 306 314 318 326 320 342 355 8 12 10 13 14 29 49 56 38 37 39 34 48 62 61 70 73 64 56 58 74 82 87 94 99 102 104 89 86 97 85 116
217 211 215 229 238 241 227 208 185 186 191 181 276 292 300 304 308 313 326 340 359 9 5 2 11 15 23 38 41 19 4 55 61 60 72 68 61 68 64 56 59 60 69 81 88 85 95 96 89 84 78 76 84 96
182 187 191 210 226 227 133 106 95 90 99 18 324 313 313 310 311 322 335 339 343 345 346 336 352 11 26 34 38 39 34 41 48 53 45 57 65 69 64 65 63 64 72 73 72 76 82 77 76 79 64 43 28 34